| time (UTC) | temp F | wind direction | speed MPH | gust MPH | rain 1hr in | rain 24hr in | rain mn in | humidity % | barometer mb |
| 20260504044540 | 62 | 78 | 0.0 | 0.0 | 0.00 | 0.00 | 0.00 | 71 | 1029.5 |
| 20260504043035 | 62 | 70 | 0.0 | 2.0 | 0.00 | 0.00 | 0.00 | 70 | 1029.5 |
| 20260504041533 | 62 | 85 | 0.0 | 3.0 | 0.00 | 0.00 | 0.00 | 70 | 1029.6 |
| 20260504040033 | 62 | 84 | 1.0 | 4.0 | 0.00 | 0.00 | 0.00 | 70 | 1029.6 |
| 20260504034551 | 62 | 63 | 2.0 | 6.0 | 0.00 | 0.00 | 0.00 | 70 | 1029.6 |
| 20260504033031 | 62 | 60 | 3.0 | 7.0 | 0.00 | 0.00 | 0.00 | 69 | 1029.6 |
| 20260504031529 | 63 | 95 | 3.0 | 6.0 | 0.00 | 0.00 | 0.00 | 69 | 1029.5 |
| 20260504030040 | 63 | 62 | 1.0 | 5.0 | 0.00 | 0.00 | 0.00 | 68 | 1029.5 |
| 20260504024526 | 63 | 75 | 2.0 | 4.0 | 0.00 | 0.00 | 0.00 | 66 | 1029.5 |
| 20260504023027 | 64 | 81 | 1.0 | 4.0 | 0.00 | 0.00 | 0.00 | 64 | 1029.5 |
| 20260504021523 | 64 | 151 | 0.0 | 2.0 | 0.00 | 0.00 | 0.00 | 62 | 1029.5 |
| 20260504020021 | 64 | 57 | 1.0 | 3.0 | 0.00 | 0.00 | 0.00 | 64 | 1029.7 |
| 20260504014533 | 64 | 87 | 0.0 | 3.0 | 0.00 | 0.00 | 0.00 | 62 | 1029.8 |
| 20260504013018 | 63 | 32 | 0.0 | 4.0 | 0.00 | 0.00 | 0.00 | 62 | 1029.9 |
| 20260504011517 | 62 | 82 | 2.0 | 5.0 | 0.00 | 0.00 | 0.00 | 63 | 1030.0 |
| 20260504010015 | 62 | 65 | 1.0 | 6.0 | 0.00 | 0.00 | 0.00 | 64 | 1030.3 |
| 20260504004513 | 62 | 77 | 1.0 | 4.0 | 0.00 | 0.00 | 0.00 | 64 | 1030.5 |
| 20260504003024 | 62 | 68 | 1.0 | 5.0 | 0.00 | 0.00 | 0.00 | 65 | 1030.6 |
| 20260504001509 | 63 | 94 | 0.0 | 3.0 | 0.00 | 0.00 | 0.00 | 61 | 1030.8 |
| 20260504000006 | 63 | 273 | 0.0 | 0.0 | 0.00 | 0.00 | 0.00 | 61 | 1031.1 |
| 20260503234511 | 62 | 319 | 0.0 | 1.0 | 0.00 | 0.00 | 0.00 | 62 | 1031.3 |
| 20260503233002 | 61 | 212 | 0.0 | 3.0 | 0.00 | 0.00 | 0.00 | 58 | 1031.4 |
| 20260503231558 | 59 | 249 | 0.0 | 1.0 | 0.00 | 0.00 | 0.00 | 60 | 1031.5 |
| 20260503224550 | 57 | 245 | 0.0 | 0.0 | 0.00 | 0.00 | 0.00 | 65 | 1031.6 |
| 20260503223051 | 55 | 245 | 0.0 | 1.0 | 0.00 | 0.00 | 0.00 | 68 | 1031.6 |
| 20260503221544 | 53 | 252 | 0.0 | 2.0 | 0.00 | 0.00 | 0.00 | 71 | 1031.8 |
| 20260503220037 | 51 | 250 | 0.0 | 3.0 | 0.00 | 0.00 | 0.00 | 75 | 1031.8 |
| 20260503214534 | 49 | 239 | 1.0 | 4.0 | 0.00 | 0.00 | 0.00 | 77 | 1031.8 |
| 20260503213029 | 48 | 244 | 1.0 | 5.0 | 0.00 | 0.00 | 0.00 | 82 | 1032.0 |
| 20260503211524 | 46 | 253 | 1.0 | 3.0 | 0.00 | 0.00 | 0.00 | 85 | 1032.0 |
| 20260503210026 | 44 | 243 | 2.0 | 3.0 | 0.00 | 0.00 | 0.00 | 87 | 1032.1 |
| 20260503204517 | 44 | 263 | 0.0 | 1.0 | 0.00 | 0.00 | 0.00 | 91 | 1032.2 |
| 20260503203019 | 42 | 264 | 0.0 | 0.0 | 0.00 | 0.00 | 0.00 | 93 | 1032.1 |
| 20260503201510 | 39 | 264 | 0.0 | 1.0 | 0.00 | 0.00 | 0.00 | 93 | 1031.9 |
| 20260503200009 | 38 | 270 | 0.0 | 0.0 | 0.00 | 0.00 | 0.00 | 94 | 1031.9 |
| 20260503194510 | 36 | 270 | 0.0 | 0.0 | 0.00 | 0.00 | 0.00 | 94 | 1031.8 |
| 20260503193009 | 35 | 270 | 0.0 | 0.0 | 0.00 | 0.00 | 0.00 | 93 | 1031.6 |
| 20260503191507 | 34 | 270 | 0.0 | 0.0 | 0.00 | 0.00 | 0.00 | 93 | 1031.5 |
| 20260503190005 | 35 | 270 | 0.0 | 0.0 | 0.00 | 0.00 | 0.00 | 93 | 1031.5 |
| 20260503184507 | 35 | 270 | 0.0 | 0.0 | 0.00 | 0.00 | 0.00 | 93 | 1031.5 |
| 20260503183002 | 35 | 270 | 0.0 | 0.0 | 0.00 | 0.00 | 0.00 | 93 | 1031.4 |
| 20260503181502 | 35 | 270 | 0.0 | 2.0 | 0.00 | 0.00 | 0.00 | 93 | 1031.3 |
| 20260503180100 | 36 | 264 | 0.0 | 0.0 | 0.00 | 0.00 | 0.00 | 92 | 1031.3 |
| 20260503174558 | 36 | 263 | 0.0 | 0.0 | 0.00 | 0.00 | 0.00 | 93 | 1031.2 |
| 20260503173117 | 37 | 264 | 0.0 | 0.0 | 0.00 | 0.00 | 0.00 | 93 | 1031.3 |
| 20260503171552 | 37 | 264 | 0.0 | 1.0 | 0.00 | 0.00 | 0.00 | 93 | 1031.5 |
| 20260503081502 | 43 | 258 | 0.0 | 1.0 | 0.00 | 0.00 | 0.00 | 88 | 1030.7 |
| 20260503071616 | 47 | 63 | 0.0 | 1.0 | 0.00 | 0.00 | 0.00 | 84 | 1030.3 |
| 20260503070107 | 49 | 63 | 0.0 | 0.0 | 0.00 | 0.00 | 0.00 | 84 | 1030.1 |